[[{"header":{"parameterUnit":"m.s-1","parameterCategory":1,"la1":30.2991,"la2":30.254,"lo1":-89.0895,"lo2":-89.0444,"dy":0.0017,"dx":0.0017,"nx":28,"ny":28,"refTime":"2023-06-25T21:00:00:Z","depth":0,"parameterNumber":2,"parameterNumberName":"U-component_of_WINDS"},"data":[0,0,0,0,0,0,0,0,0,0,0,0,0,0,0,0,0,0,0,0,0,0,0,0,0,0,0,0,0,0,0,0,0,0,0,0,0,0,0,0,0,0,0,0,0,0,0,0,0,0,0,0,0,0,0,0,0,0,2.4271,2.4277,0,2.4764,2.477,2.4775,2.5063,2.5064,2.5065,2.5066,2.5572,2.5584,2.5597,0,0,0,0,0,0,0,0,0,0,0,0,0,2.3581,2.3592,2.4271,2.4277,2.4283,2.4763,2.477,2.4777,2.5062,2.5064,2.5065,2.5066,2.5568,2.5583,2.5598,0,0,0,0,0,0,0,0,0,0,0,0,0,2.3958,2.3596,2.427,2.4484,2.4508,2.4762,2.477,2.4779,2.5062,2.5064,2.5066,2.5067,2.5563,2.5581,2.56,2.568,0,0,2.5657,2.5665,0,0,0,0,0,0,0,0,2.3936,2.3983,2.4446,2.4469,2.4497,2.4854,2.4713,2.5081,2.5062,2.4852,2.5066,2.5068,2.5332,2.537,2.5458,2.5704,2.5726,2.5658,2.567,2.5678,2.5683,0,0,0,0,0,0,0,2.391,2.3963,2.4466,2.4452,2.4483,2.4556,2.4612,2.4784,2.5076,2.487,2.4892,2.4946,2.5346,2.544,2.5472,2.5733,2.5658,2.5674,2.5686,2.5693,2.6073,2.6072,0,0,0,0,0,0,2.3849,2.394,2.4451,2.4481,2.4215,2.4567,2.4629,2.4737,2.5075,2.5128,2.4944,2.4958,2.5407,2.545,2.5491,2.5609,2.5678,2.5695,2.5706,2.6074,2.6073,2.6072,0,0,0,0,0,0,2.3833,2.3892,2.4431,2.4217,2.4291,2.4577,2.4696,2.4746,2.484,2.5131,2.5185,2.4986,2.541,2.5465,2.5632,2.5631,2.5703,2.572,2.6075,2.6074,2.6072,2.5843,0,0,0,0,0,0,2.3812,2.3884,2.3916,2.4215,2.4301,2.456,2.4696,2.4754,2.4871,2.4893,2.5184,2.5234,2.5416,2.5602,2.565,2.5658,2.5735,2.6077,2.6075,2.6073,2.5852,2.5834,2.5818,0,0,0,0,0,2.3786,2.3832,2.3916,2.3976,2.4347,2.456,2.4609,2.4816,2.487,2.4905,2.5093,2.5225,2.5623,2.5617,2.5673,2.5686,2.6078,2.6075,2.6073,2.5859,2.5837,2.5819,0,0,0,0,0,0,2.3525,2.3875,2.3972,2.4116,2.4306,2.4608,2.4658,2.4786,2.4965,2.4978,2.5229,2.5292,2.5435,2.5579,2.5565,2.5784,2.5866,2.5874,2.5684,2.5665,2.5649,2.561,2.575,0,0,0,0,0,2.3484,2.3627,2.3926,2.4023,2.4114,2.4369,2.4469,2.4613,2.482,2.4902,2.5102,2.5299,2.547,2.5576,2.5748,2.5875,2.5944,2.5912,2.5895,2.588,2.5884,2.5964,2.5954,2.6064,2.6064,2.6064,0,0,2.3401,2.361,2.3684,2.3976,2.414,2.4283,2.4434,2.4579,2.4689,2.4925,2.5094,2.5247,2.5485,2.5631,2.5707,2.5755,2.587,2.5877,2.5862,2.5876,2.596,2.595,2.594,2.6062,2.6062,2.6063,0,0,2.3322,2.3494,2.3595,2.3757,2.4004,2.4175,2.4198,2.4483,2.4594,2.4768,2.4948,2.5084,2.537,2.5533,2.5652,2.5638,2.5767,2.5688,2.5599,2.5674,2.5665,2.5659,2.5654,2.565,2.5692,2.5691,2.5691,0,2.3187,2.3409,2.3631,2.3766,2.389,2.4111,2.4216,2.4363,2.4653,2.4734,2.4785,2.5152,2.5327,2.5516,2.5513,2.5603,2.5639,2.5655,2.5649,2.5644,2.5642,2.564,2.5638,2.568,2.5681,2.5682,2.5683,0,2.3231,2.3383,2.3436,2.371,2.3841,2.396,2.4201,2.4307,2.444,2.4605,2.4781,2.5,2.5221,2.5277,2.5409,2.5486,2.5509,2.56,2.5688,2.5616,2.5619,2.562,2.5664,2.5668,2.5671,2.5674,0,0,2.2998,2.3397,2.3412,2.3541,2.3831,2.3954,2.4085,2.4301,2.4387,2.4582,2.4698,2.4938,2.5026,2.5161,2.5314,2.538,2.5356,2.5465,2.5475,2.5436,2.5456,2.5384,2.5379,2.5444,2.5445,2.5446,2.5436,0,2.2961,2.3205,2.341,2.3578,2.3722,2.3937,2.4052,2.4243,2.4402,2.4549,2.4726,2.4891,2.4994,2.5078,2.5153,2.5342,2.5363,2.5346,2.5556,2.5561,2.5487,2.5381,2.5305,2.5285,2.5439,2.5439,2.544,0,2.2949,2.3134,2.3316,2.3596,2.3664,2.3762,2.3979,2.4117,2.434,2.4451,2.4604,2.4763,2.4914,2.4987,2.5199,2.5182,2.5282,2.5388,2.5393,2.5418,2.5493,2.5403,2.5284,2.5279,2.5444,2.5443,2.5443,0,2.2759,2.3055,2.3204,2.3307,2.3636,2.3701,2.3841,2.4066,2.4184,2.4375,2.4454,2.4659,2.4771,2.4927,2.5139,2.5173,2.5328,2.5419,2.5426,2.542,2.5446,2.5441,2.5339,2.5512,2.5512,2.5512,2.5512,0,2.2695,2.2798,2.3123,2.3213,2.3337,2.3574,2.3689,2.3849,2.4047,2.4174,2.4374,2.4489,2.4762,2.4911,2.5078,2.5228,2.5278,2.5373,2.5416,2.5354,2.5341,2.542,2.5427,2.5511,2.5511,2.5511,2.5511,0,2.2502,2.2724,2.29,2.3198,2.3276,2.3353,2.3609,2.3707,2.3878,2.4037,2.4088,2.4357,2.4543,2.477,2.5029,2.5142,2.5276,2.5341,2.5199,2.5224,2.5217,2.5213,2.516,2.5166,2.5333,2.5331,2.5329,0,2.2445,2.253,2.2837,2.2937,2.3071,2.3228,2.335,2.3588,2.3707,2.397,2.4035,2.4237,2.441,2.4697,2.4917,2.5117,2.5188,2.5156,2.522,2.5155,2.5187,2.5179,2.5189,2.5138,2.5135,2.5133,2.5131,0,2.232,2.2427,2.2595,2.2801,2.2942,2.3116,2.3299,2.337,2.3646,2.377,2.3962,2.4096,2.4362,2.456,2.4788,2.4936,2.5079,2.511,2.5122,2.5058,2.4972,2.5018,2.5152,2.5109,2.5111,2.5113,2.5114,2.5115,2.2194,2.228,2.251,2.2691,2.2855,2.3022,2.3129,2.3315,2.3479,2.3713,2.3845,2.4033,2.4259,2.4581,2.4723,2.4875,2.4927,2.4944,2.4949,2.4948,2.4929,2.4949,2.4918,2.4919,2.492,2.4921,2.4922,0,2.2079,2.2239,2.2403,2.2654,2.2796,2.2921,2.3131,2.3242,2.3406,2.3604,2.3771,2.3993,2.4187,2.4423,2.4633,2.4709,2.4781,2.4756,2.4752,2.4784,2.4871,2.4839,2.4695,2.4695,2.4695,2.4695,2.4695,2.4695,2.2035,2.2187,2.2322,2.2558,2.2719,2.2904,2.3014,2.317,2.333,2.3568,2.373,2.3883,2.4098,2.4326,2.451,2.4575,2.4642,2.4597,2.4681,2.4758,2.4777,2.4796,2.4768,2.4611,2.461,2.4582,2.4582,2.4581]},{"header":{"parameterUnit":"m.s-1","parameterCategory":1,"la1":30.2991,"la2":30.254,"lo1":-89.0895,"lo2":-89.0444,"dy":0.0017,"dx":0.0017,"nx":28,"ny":28,"refTime":"2023-06-25T21:00:00:Z","depth":0,"parameterNumber":3,"parameterNumberName":"V-component_of_WINDS"},"data":[0,0,0,0,0,0,0,0,0,0,0,0,0,0,0,0,0,0,0,0,0,0,0,0,0,0,0,0,0,0,0,0,0,0,0,0,0,0,0,0,0,0,0,0,0,0,0,0,0,0,0,0,0,0,0,0,0,0,3.4821,3.482,0,3.4678,3.4677,3.4675,3.4572,3.4571,3.457,3.4569,3.4418,3.4415,3.4411,0,0,0,0,0,0,0,0,0,0,0,0,0,3.5005,3.5002,3.4822,3.482,3.4818,3.4679,3.4677,3.4675,3.4572,3.4571,3.457,3.4569,3.4419,3.4415,3.4411,0,0,0,0,0,0,0,0,0,0,0,0,0,3.49,3.5001,3.4822,3.475,3.4742,3.4679,3.4677,3.4674,3.4572,3.4571,3.457,3.4569,3.442,3.4415,3.441,3.4406,0,0,3.4396,3.4393,0,0,0,0,0,0,0,0,3.4906,3.4893,3.4762,3.4755,3.4746,3.4642,3.4685,3.4584,3.4573,3.4637,3.4569,3.4568,3.4493,3.4482,3.4458,3.4398,3.4392,3.4395,3.4392,3.439,3.4389,0,0,0,0,0,0,0,3.4913,3.4899,3.4765,3.4761,3.4751,3.4725,3.4708,3.4666,3.4573,3.4631,3.4623,3.4608,3.4488,3.4463,3.4453,3.439,3.4395,3.4391,3.4388,3.4386,3.4324,3.4325,0,0,0,0,0,0,3.4932,3.4905,3.4769,3.476,3.4825,3.4722,3.4704,3.4676,3.4574,3.4557,3.4609,3.4604,3.4472,3.4459,3.4448,3.4437,3.439,3.4385,3.4383,3.4322,3.4324,3.4325,0,0,0,0,0,0,3.4936,3.4921,3.4775,3.4831,3.481,3.4721,3.469,3.4674,3.4649,3.4557,3.454,3.46,3.447,3.4454,3.4418,3.443,3.4383,3.4379,3.4321,3.4323,3.4325,3.4415,0,0,0,0,0,0,3.4942,3.4923,3.492,3.4832,3.4808,3.4748,3.4691,3.4672,3.4641,3.4633,3.4544,3.4528,3.4468,3.4426,3.4413,3.4423,3.4375,3.4319,3.4322,3.4324,3.441,3.442,3.4428,0,0,0,0,0,3.4949,3.4949,3.492,3.4904,3.4802,3.4749,3.4735,3.4667,3.4642,3.4639,3.4581,3.4531,3.4432,3.4423,3.4408,3.4416,3.4318,3.4321,3.4324,3.4406,3.4418,3.4427,0,0,0,0,0,0,3.5037,3.4936,3.4903,3.4874,3.4822,3.4732,3.4724,3.4681,3.4632,3.4626,3.4543,3.4524,3.4497,3.4453,3.4445,3.4408,3.4369,3.4369,3.4437,3.4447,3.4456,3.4466,3.4371,0,0,0,0,0,3.5055,3.5021,3.4933,3.4917,3.4893,3.4814,3.4788,3.4741,3.4682,3.4658,3.4597,3.4541,3.4498,3.447,3.4425,3.4405,3.4385,3.4404,3.4412,3.442,3.442,3.4409,3.4417,3.4335,3.4335,3.4335,0,0,3.5087,3.5028,3.5011,3.4933,3.4887,3.4854,3.4795,3.4761,3.4736,3.4652,3.4615,3.457,3.4501,3.4475,3.4459,3.4437,3.4439,3.4423,3.443,3.4426,3.4413,3.4421,3.4428,3.4337,3.4336,3.4336,0,0,3.5131,3.5082,3.5065,3.5021,3.4953,3.4902,3.4898,3.4816,3.4783,3.4746,3.4684,3.4653,3.4578,3.4533,3.4501,3.4536,3.4488,3.4523,3.4567,3.4558,3.4564,3.4569,3.4582,3.4588,3.4524,3.4524,3.4525,0,3.5179,3.5128,3.506,3.5032,3.5001,3.4928,3.491,3.4871,3.479,3.477,3.4748,3.4657,3.4606,3.4568,3.4578,3.4554,3.4547,3.4531,3.4569,3.4574,3.4577,3.4589,3.4594,3.4529,3.4529,3.4528,3.4528,0,3.5192,3.5158,3.5152,3.5081,3.5049,3.5026,3.4955,3.4931,3.489,3.4841,3.4806,3.4743,3.4685,3.4674,3.463,3.4632,3.462,3.4585,3.4543,3.4591,3.4601,3.4604,3.4536,3.4534,3.4533,3.4532,0,0,3.5281,3.5178,3.5177,3.5145,3.5068,3.504,3.5016,3.4962,3.4944,3.4893,3.4871,3.4813,3.4782,3.4745,3.4697,3.4689,3.4723,3.4655,3.4652,3.467,3.4723,3.4749,3.4755,3.4693,3.4694,3.4694,3.4728,0,3.5312,3.5265,3.5207,3.5179,3.5148,3.5082,3.5061,3.5012,3.4968,3.4935,3.4886,3.4847,3.4807,3.4786,3.4775,3.4721,3.4732,3.4718,3.4671,3.467,3.4688,3.476,3.4786,3.4821,3.4732,3.4732,3.4733,0,3.534,3.5297,3.5268,3.5198,3.5183,3.5165,3.5113,3.5083,3.5027,3.4996,3.496,3.491,3.4881,3.4847,3.4808,3.48,3.4778,3.4749,3.4749,3.474,3.4703,3.4752,3.4831,3.4836,3.4738,3.4737,3.4737,0,3.5409,3.5343,3.5318,3.5293,3.5211,3.52,3.5165,3.5109,3.5082,3.5038,3.502,3.4972,3.4946,3.491,3.485,3.483,3.4818,3.4778,3.4791,3.4793,3.4788,3.4789,3.4864,3.4777,3.4777,3.4777,3.4777,0,3.5448,3.5432,3.5348,3.5332,3.5315,3.5249,3.5233,3.5192,3.5144,3.5119,3.506,3.5038,3.496,3.4929,3.4882,3.4858,3.4846,3.482,3.4807,3.4824,3.4828,3.4807,3.4802,3.4778,3.4778,3.4778,3.4777,0,3.5519,3.5462,3.5431,3.5358,3.534,3.533,3.5267,3.525,3.5206,3.5176,3.5165,3.5095,3.5056,3.4994,3.4936,3.4904,3.4889,3.4868,3.4908,3.49,3.4917,3.4916,3.4979,3.4985,3.4896,3.4897,3.4898,0,3.5547,3.5534,3.5463,3.5444,3.5412,3.5381,3.5356,3.5292,3.5268,3.5207,3.5198,3.5156,3.5118,3.5061,3.5004,3.496,3.4938,3.4963,3.493,3.4949,3.4938,3.4939,3.4938,3.497,3.4971,3.4972,3.4973,0,3.5603,3.5577,3.5543,3.5501,3.5473,3.5435,3.5395,3.5383,3.5311,3.5287,3.5249,3.5221,3.5165,3.5124,3.5074,3.5038,3.4994,3.4985,3.4985,3.5002,3.5026,3.5013,3.4928,3.4982,3.4981,3.4981,3.498,3.498,3.5652,3.564,3.5589,3.5554,3.5519,3.5484,3.5466,3.5422,3.539,3.5341,3.5306,3.5271,3.522,3.5149,3.5116,3.5088,3.5068,3.5069,3.5068,3.5069,3.5077,3.5033,3.5079,3.5078,3.5078,3.5078,3.5077,0,3.5705,3.5671,3.564,3.5589,3.5562,3.5528,3.5483,3.5463,3.5434,3.5391,3.5358,3.5316,3.5278,3.5221,3.5179,3.5167,3.5147,3.5158,3.5157,3.515,3.5096,3.51,3.5176,3.5176,3.5176,3.5176,3.5176,3.5176,3.5729,3.5707,3.5677,3.5637,3.5603,3.557,3.5548,3.5516,3.5483,3.544,3.5409,3.5374,3.5326,3.5281,3.5245,3.5229,3.5216,3.5235,3.5213,3.5163,3.5154,3.5145,3.5148,3.5233,3.5233,3.5269,3.5269,3.5269]}]]